Flag for U.S.A. Weather past 2 weeks in Cupertino, California, U.S.A.

Now
70 °F

Sunny.


Feels Like: 74 °F
Forecast: 59 / 93 °F
Wind: 3 mph from North

Location: Moffett Field

Current Time: Jul 25, 2014 at 9:58:46 AM

Latest Report: Jul 25, 2014 at 8:56 AM


Visibility: 10 mi

Pressure: 29.90 "Hg

Humidity: 68%

Dew point: 59 °F

Location of CupertinoLocation

Historic Weather in Cupertino — Graph

°F

Cupertino temperature yesterday

Maximum temperature yesterday: 85 °F (at 2:56 PM)
Minimum temperature yesterday: 61 °F (at 5:56 AM)
Average temperature yesterday: 71 °F

Past Weeks' High & Low Weather Summary

 TemperatureHumidityPressure
High85 °F (Jul 24, 2:56 PM)90% (Jul 24, 5:56 AM)30.15 "Hg (Jul 24, 5:56 AM)
Low59 °F (Jul 13, 4:56 AM)40% (Jul 24, 2:56 PM)29.84 "Hg (Jul 24, 6:56 PM)
Average68 °F70%29.99 "Hg
* Reported Jul 10 7:56 AM — Jul 25 7:56 AM, Cupertino, Weather by CustomWeather, © 2014

Note: Actual official high and low records may vary slightly from our data, if they occured in-between our weather recording intervals... More about our weather records

Advertising

Cupertino weather history for previous 24 hours

 ConditionsComfort  
Time TempWeatherWind HumidityBarometerVisibility
7:56 AM
Jul 25
67 °FSunny.No wind73%29.89 "Hg10 mi
6:56 AM64 °FClear.No wind73%29.88 "Hg10 mi
5:56 AM63 °FClear.No wind75%29.86 "Hg10 mi
4:56 AM63 °FClear.No wind75%29.85 "Hg10 mi
3:56 AM65 °FClear.No wind73%29.84 "Hg10 mi
2:56 AM66 °FClear.No wind73%29.85 "Hg10 mi
1:56 AM67 °FClear.No wind73%29.86 "Hg10 mi
12:56 AM69 °FClear.No wind68%29.87 "Hg10 mi
11:56 PM
Jul 24
69 °FClear.No wind68%29.88 "Hg10 mi
10:56 PM70 °FClear.No wind64%29.88 "Hg10 mi
9:56 PM71 °FClear.5 mph57%29.88 "Hg10 mi
8:56 PM73 °FSunny.10 mph57%29.86 "Hg10 mi
7:56 PM76 °FSunny.16 mph56%29.84 "Hg10 mi
6:56 PM79 °FSunny.18 mph54%29.84 "Hg10 mi
5:56 PM82 °FSunny.17 mph49%29.85 "Hg10 mi
4:56 PM82 °FSunny.15 mph44%29.85 "Hg10 mi
3:56 PM83 °FSunny.16 mph43%29.87 "Hg10 mi
2:56 PM85 °FSunny.14 mph40%29.90 "Hg10 mi
1:56 PM81 °FSunny.12 mph47%29.93 "Hg10 mi
12:56 PM79 °FSunny.8 mph48%29.96 "Hg10 mi
11:56 AM76 °FSunny.6 mph58%29.98 "Hg10 mi
10:56 AM73 °FSunny.3 mph62%30.00 "Hg10 mi
9:56 AM69 °FSunny.6 mph73%30.02 "Hg10 mi
Weather by CustomWeather, © 2014

See weather overviewHow to use our weather pages